This is the latest recevied weather packets stored in our database for station/object VE9LJW. If no packets are shown the sender has not sent any weather packets the latest 10 day(s).
| Time | Temp. | Humidity | Pressure | Rain* | Wind** | Luminosity | Snow |
|---|---|---|---|---|---|---|---|
| 1777912994 | 17.22° C | 43% | 1000.4 hPa | 0 mm | - | 714 W/m² | - |
| 1777912689 | 16.67° C | 45% | 1000.7 hPa | 0 mm | - | 685 W/m² | - |
| 1777912385 | 16.67° C | 46% | 1000.5 hPa | 0 mm | - | 615 W/m² | - |
| 1777912082 | 16.67° C | 47% | 1000.5 hPa | 0 mm | - | 672 W/m² | - |
| 1777911777 | 16.67° C | 46% | 1000.6 hPa | 0 mm | - | 708 W/m² | - |
| 1777911475 | 16.67° C | 46% | 1000.8 hPa | 0 mm | - | 663 W/m² | - |
| 1777911172 | 16.11° C | 46% | 1000.8 hPa | 0 mm | - | 710 W/m² | - |
| 1777910869 | 16.11° C | 49% | 1000.9 hPa | 0 mm | - | 643 W/m² | - |
| 1777910565 | 16.11° C | 47% | 1001 hPa | 0 mm | - | 695 W/m² | - |
| 1777910263 | 16.11° C | 49% | 1001.3 hPa | 0 mm | - | 684 W/m² | - |
| 1777909959 | 15.56° C | 50% | 1001 hPa | 0 mm | - | 747 W/m² | - |
| 1777909656 | 16.11° C | 51% | 1001.2 hPa | 0 mm | - | 703 W/m² | - |
| 1777909354 | 15.56° C | 49% | 1001.4 hPa | 0 mm | - | 674 W/m² | - |
| 1777909051 | 15.56° C | 46% | 1001.4 hPa | 0 mm | - | 662 W/m² | - |
| 1777908749 | 15.56° C | 49% | 1001.4 hPa | 0 mm | - | 431 W/m² | - |
| 1777908446 | 15° C | 53% | 1001.5 hPa | 0 mm | - | 723 W/m² | - |
| 1777908143 | 15° C | 49% | 1001.4 hPa | 0 mm | - | 612 W/m² | - |
| 1777907839 | 14.44° C | 52% | 1001.3 hPa | 0 mm | - | 472 W/m² | - |
| 1777907535 | 13.89° C | 50% | 1001.6 hPa | 0 mm | - | 717 W/m² | - |
| 1777907231 | 14.44° C | 51% | 1001.6 hPa | 0 mm | - | 765 W/m² | - |
| 1777906927 | 14.44° C | 49% | 1001.7 hPa | 0 mm | - | 740 W/m² | - |
| 1777906625 | 14.44° C | 51% | 1001.7 hPa | 0 mm | - | 781 W/m² | - |
| 1777906320 | 13.89° C | 50% | 1001.7 hPa | 0 mm | - | 777 W/m² | - |
| 1777906018 | 13.89° C | 54% | 1001.8 hPa | 0 mm | - | 798 W/m² | - |
| 1777905714 | 13.89° C | 54% | 1002 hPa | 0 mm | - | 768 W/m² | - |
* Rain latest hour (hover to see other rain measurements)
** Current wind speed in m/s (hover to see current wind gust speed)